Location: ??????
(56.0120°N, 39.1740°E)
Time: 06:57:04
(UTC+00:00)

ALOS 2 - Pass Details

Date: 14 April 2026
Orbit: 630 x 632 km, 97.9° (Epoch: 13 May)

Event Time Altitude Azimuth Distance (km) Brightness Sun altitude
Exits shadow 21:53:56 21° 274° (W) 1,422 4.3 -24.0°
Drops below altitude 10° 21:57:05 10° 320° (NW) 2,028 5.7 -23.9°
Sets 21:59:45 0° 337° (NNW) 2,941 6.9 -23.9°
